Terminal Aerodrome Forecast
Issued by NWS Buffalo, NY

Home | Current Version | Previous Version | Text Only | Print | Product List | Glossary On
Versions: 1 2 3 4 5 6 7 8 9 10 11 12 13 14 15 16 17 18 19 20 21 22 23
000
FTUS41 KBUF 210500
TAFBUF
TAF
KBUF 210527Z 2106/2206 15005KT P6SM SCT140
     FM210900 19007KT P6SM SCT120
     FM211500 23011KT P6SM BKN120
     FM212300 22007KT P6SM BKN130=

USA.gov is the U.S. government's official web portal to all federal, state and local government web resources and services.